• In Deutschland
  • Länderverzeichnis
  • Für 7 Tage
  • Wassertemperatur
  • Satellitenkarten
  • Wetterkarte
  • Widgets
  • user-avatar
    Anmelden

    Stündliche Wetter Bad Salzschlirf

    Heute, 22 Oktober, Sonntag

    Zeit Temperatur Niederschläge Wind Luftdruck Luftfeuchtigkeit
    00:00 +10°C° 0,1 mm 4 m/S 732 mmHg 92%
    01:00 +9°C° 0 mm 3 m/S 732 mmHg 93%
    02:00 +8°C° 0 mm 4 m/S 732 mmHg 92%
    03:00 +7°C° 0 mm 4 m/S 732 mmHg 92%
    04:00 +7°C° 0 mm 4 m/S 732 mmHg 91%
    05:00 +7°C° 0 mm 5 m/S 731 mmHg 90%
    06:00 +7°C° 0 mm 5 m/S 731 mmHg 89%
    07:00 +7°C° 0 mm 4 m/S 731 mmHg 89%
    08:00 +7°C° 0,1 mm 5 m/S 731 mmHg 86%
    09:00 +8°C° 0,1 mm 6 m/S 731 mmHg 82%
    10:00 +8°C° 0,1 mm 6 m/S 731 mmHg 79%
    11:00 +8°C° 0,1 mm 6 m/S 731 mmHg 80%
    12:00 +8°C° 0,1 mm 6 m/S 731 mmHg 81%
    13:00 +8°C° 0,1 mm 6 m/S 731 mmHg 81%
    14:00 +7°C° 0,2 mm 5 m/S 731 mmHg 83%
    15:00 +7°C° 0,2 mm 5 m/S 731 mmHg 84%
    16:00 +7°C° 0,2 mm 5 m/S 731 mmHg 86%
    17:00 +7°C° 0,2 mm 4 m/S 731 mmHg 88%
    18:00 +7°C° 0,2 mm 4 m/S 731 mmHg 90%
    19:00 +6°C° 0,2 mm 4 m/S 732 mmHg 91%
    20:00 +7°C° 0,1 mm 3 m/S 732 mmHg 92%
    21:00 +7°C° 0,1 mm 3 m/S 732 mmHg 93%
    22:00 +5°C° 0,1 mm 3 m/S 732 mmHg 94%
    23:00 +5°C° 0 mm 3 m/S 732 mmHg 94%

    Morgen, 23 Oktober, Montag

    Zeit Temperatur Niederschläge Wind Luftdruck Luftfeuchtigkeit
    00:00 +5°C° 0 mm 3 m/S 732 mmHg 95%
    01:00 +4°C° 0 mm 3 m/S 733 mmHg 96%
    02:00 +4°C° 0,2 mm 3 m/S 733 mmHg 95%
    03:00 +4°C° 0,2 mm 3 m/S 733 mmHg 95%
    04:00 +5°C° 0,2 mm 3 m/S 733 mmHg 94%
    05:00 +5°C° 1 mm 4 m/S 733 mmHg 94%
    06:00 +5°C° 1 mm 4 m/S 733 mmHg 94%
    07:00 +5°C° 1 mm 4 m/S 733 mmHg 94%
    08:00 +6°C° 0,3 mm 4 m/S 733 mmHg 92%
    09:00 +7°C° 0,3 mm 4 m/S 734 mmHg 90%
    10:00 +7°C° 0,3 mm 4 m/S 734 mmHg 88%
    11:00 +8°C° 0,1 mm 4 m/S 734 mmHg 87%
    12:00 +8°C° 0,1 mm 4 m/S 734 mmHg 86%
    13:00 +8°C° 0,1 mm 4 m/S 734 mmHg 84%
    14:00 +8°C° 0,3 mm 4 m/S 734 mmHg 86%
    15:00 +8°C° 0,3 mm 4 m/S 734 mmHg 88%
    16:00 +9°C° 0,3 mm 3 m/S 734 mmHg 90%
    17:00 +9°C° 0,2 mm 3 m/S 735 mmHg 91%
    18:00 +9°C° 0,2 mm 3 m/S 735 mmHg 92%
    19:00 +8°C° 0,2 mm 3 m/S 735 mmHg 92%
    20:00 +8°C° 0 mm 3 m/S 736 mmHg 93%
    21:00 +8°C° 0 mm 3 m/S 736 mmHg 94%
    22:00 +7°C° 0 mm 2 m/S 736 mmHg 96%
    23:00 +7°C° 0 mm 2 m/S 737 mmHg 96%

    übermorgen, 24 Oktober, Dienstag

    Zeit Temperatur Niederschläge Wind Luftdruck Luftfeuchtigkeit
    00:00 +7°C° 0 mm 2 m/S 737 mmHg 97%
    01:00 +6°C° 0 mm 2 m/S 737 mmHg 97%
    02:00 +7°C° 0 mm 2 m/S 737 mmHg 98%
    03:00 +7°C° 0 mm 2 m/S 737 mmHg 98%
    04:00 +7°C° 0 mm 2 m/S 737 mmHg 98%
    05:00 +7°C° 0,1 mm 2 m/S 737 mmHg 97%
    06:00 +8°C° 0,1 mm 2 m/S 737 mmHg 97%
    07:00 +8°C° 0,1 mm 2 m/S 738 mmHg 97%
    08:00 +9°C° 0 mm 2 m/S 738 mmHg 96%
    09:00 +10°C° 0 mm 2 m/S 738 mmHg 95%
    10:00 +10°C° 0 mm 2 m/S 738 mmHg 94%
    11:00 +11°C° 0 mm 3 m/S 738 mmHg 93%
    12:00 +12°C° 0 mm 3 m/S 738 mmHg 92%
    13:00 +12°C° 0 mm 3 m/S 738 mmHg 91%
    14:00 +12°C° 0,1 mm 3 m/S 738 mmHg 91%
    15:00 +12°C° 0,1 mm 3 m/S 738 mmHg 92%
    16:00 +12°C° 0,1 mm 3 m/S 737 mmHg 93%
    17:00 +12°C° 0,1 mm 3 m/S 738 mmHg 94%
    18:00 +12°C° 0,1 mm 3 m/S 738 mmHg 95%
    19:00 +11°C° 0,1 mm 3 m/S 738 mmHg 96%
    20:00 +12°C° 0,2 mm 3 m/S 738 mmHg 96%
    21:00 +12°C° 0,2 mm 3 m/S 738 mmHg 96%
    22:00 +12°C° 0,2 mm 3 m/S 738 mmHg 97%
    23:00 +12°C° 0 mm 3 m/S 738 mmHg 97%

    25 Oktober, Mittwoch

    Zeit Temperatur Niederschläge Wind Luftdruck Luftfeuchtigkeit
    00:00 +12°C° 0 mm 3 m/S 738 mmHg 97%
    01:00 +12°C° 0 mm 3 m/S 738 mmHg 97%
    02:00 +12°C° 0 mm 3 m/S 738 mmHg 97%
    03:00 +11°C° 0 mm 3 m/S 738 mmHg 97%
    04:00 +11°C° 0 mm 3 m/S 738 mmHg 96%
    05:00 +11°C° 0 mm 3 m/S 738 mmHg 96%
    06:00 +11°C° 0 mm 3 m/S 738 mmHg 96%
    07:00 +11°C° 0 mm 3 m/S 738 mmHg 97%
    08:00 +12°C° 0 mm 3 m/S 738 mmHg 94%
    09:00 +13°C° 0 mm 3 m/S 738 mmHg 92%
    10:00 +13°C° 0 mm 3 m/S 739 mmHg 90%
    11:00 +14°C° 0 mm 3 m/S 739 mmHg 88%
    12:00 +14°C° 0 mm 4 m/S 738 mmHg 86%
    13:00 +15°C° 0 mm 4 m/S 738 mmHg 83%
    14:00 +16°C° 0 mm 3 m/S 738 mmHg 83%
    15:00 +16°C° 0 mm 3 m/S 738 mmHg 83%
    16:00 +16°C° 0 mm 3 m/S 738 mmHg 83%
    17:00 +15°C° 0 mm 2 m/S 738 mmHg 87%
    18:00 +14°C° 0 mm 2 m/S 738 mmHg 91%
    19:00 +13°C° 0 mm 2 m/S 738 mmHg 95%
    20:00 +13°C° 0 mm 2 m/S 739 mmHg 96%
    21:00 +12°C° 0 mm 1 m/S 739 mmHg 96%
    22:00 +12°C° 0 mm 1 m/S 739 mmHg 96%
    23:00 +12°C° 0 mm 1 m/S 739 mmHg 97%

    26 Oktober, Donnerstag

    Zeit Temperatur Niederschläge Wind Luftdruck Luftfeuchtigkeit
    00:00 +11°C° 0 mm 1 m/S 739 mmHg 97%
    01:00 +11°C° 0 mm 1 m/S 739 mmHg 97%
    02:00 +11°C° 0 mm 1 m/S 739 mmHg 97%
    03:00 +11°C° 0 mm 1 m/S 739 mmHg 98%
    04:00 +11°C° 0 mm 1 m/S 739 mmHg 98%
    05:00 +11°C° 0 mm 1 m/S 739 mmHg 98%
    06:00 +11°C° 0 mm 1 m/S 739 mmHg 98%
    07:00 +10°C° 0 mm 2 m/S 739 mmHg 98%
    08:00 +12°C° 0 mm 2 m/S 739 mmHg 96%
    09:00 +13°C° 0 mm 2 m/S 739 mmHg 93%
    10:00 +13°C° 0 mm 3 m/S 739 mmHg 91%
    11:00 +14°C° 0 mm 3 m/S 739 mmHg 85%
    12:00 +16°C° 0 mm 3 m/S 739 mmHg 80%
    13:00 +18°C° 0 mm 3 m/S 739 mmHg 75%
    14:00 +17°C° 0 mm 3 m/S 738 mmHg 76%
    15:00 +17°C° 0 mm 3 m/S 738 mmHg 77%
    16:00 +17°C° 0 mm 2 m/S 738 mmHg 79%
    17:00 +16°C° 0 mm 2 m/S 738 mmHg 84%
    18:00 +14°C° 0 mm 2 m/S 738 mmHg 88%
    19:00 +13°C° 0 mm 1 m/S 738 mmHg 93%
    20:00 +13°C° 0 mm 1 m/S 738 mmHg 94%
    21:00 +12°C° 0 mm 1 m/S 738 mmHg 95%
    22:00 +12°C° 0 mm 1 m/S 738 mmHg 95%
    23:00 +12°C° 0 mm 1 m/S 737 mmHg 96%

    27 Oktober, Freitag

    Zeit Temperatur Niederschläge Wind Luftdruck Luftfeuchtigkeit
    00:00 +10°C° 0 mm 2 m/S 737 mmHg 96%
    01:00 +10°C° 0 mm 2 m/S 737 mmHg 97%
    02:00 +10°C° 0 mm 2 m/S 737 mmHg 97%
    03:00 +10°C° 0 mm 2 m/S 736 mmHg 97%
    04:00 +10°C° 0 mm 2 m/S 736 mmHg 97%
    05:00 +11°C° 0 mm 3 m/S 736 mmHg 96%
    06:00 +11°C° 0 mm 3 m/S 735 mmHg 95%
    07:00 +11°C° 0 mm 3 m/S 735 mmHg 94%
    08:00 +11°C° 0 mm 4 m/S 735 mmHg 90%
    09:00 +12°C° 0 mm 4 m/S 734 mmHg 87%
    10:00 +12°C° 0 mm 5 m/S 734 mmHg 83%
    11:00 +12°C° 0,1 mm 5 m/S 734 mmHg 82%
    12:00 +13°C° 0,1 mm 5 m/S 734 mmHg 81%
    13:00 +13°C° 0,1 mm 6 m/S 734 mmHg 80%
    14:00 +12°C° 1,1 mm 5 m/S 733 mmHg 83%
    15:00 +10°C° 1,1 mm 4 m/S 733 mmHg 86%
    16:00 +8°C° 1,1 mm 4 m/S 733 mmHg 90%
    17:00 +8°C° 0,2 mm 3 m/S 734 mmHg 90%
    18:00 +8°C° 0,2 mm 3 m/S 734 mmHg 91%
    19:00 +7°C° 0,2 mm 3 m/S 735 mmHg 91%
    20:00 +7°C° 0 mm 3 m/S 735 mmHg 91%
    21:00 +7°C° 0 mm 3 m/S 736 mmHg 92%
    22:00 +7°C° 0 mm 3 m/S 736 mmHg 92%
    23:00 +5°C° 0 mm 3 m/S 736 mmHg 93%
    Mehr zeigen